MDT,Max TemperatureF,Mean TemperatureF,Min TemperatureF,Max Dew PointF,MeanDew PointF,Min DewpointF,Max Humidity, Mean Humidity, Min Humidity, Max Sea Level PressureIn, Mean Sea Level PressureIn, Min Sea Level PressureIn, Max VisibilityMiles, Mean VisibilityMiles, Min VisibilityMiles, Max Wind SpeedMPH, Mean Wind SpeedMPH, Max Gust SpeedMPH,PrecipitationIn, CloudCover, Events, WindDirDegrees
2012-3-1,45,33,21,27,15,5,81,50,19,29.82,29.73,29.61,10,10,10,32,10,40,0.00,0,,330
2012-3-2,35,24,13,15,13,10,88,62,35,30.06,29.96,29.83,10,10,10,40,17,49,0.00,1,,334
2012-3-3,45,32,18,27,19,15,84,59,33,30.03,29.93,29.74,10,10,9,31,11,38,T,7,,329
2012-3-4,44,35,25,34,29,21,81,65,49,30.13,30.02,29.80,10,8,1,33,17,41,0.04,5,Rain-Snow,342
2012-3-5,66,46,26,27,21,13,85,49,13,29.99,29.78,29.56,10,10,10,17,6,22,0.00,0,,201
2012-3-6,70,50,30,32,25,16,85,50,14,29.76,29.58,29.36,10,10,10,37,17,45,0.00,3,,316
2012-3-7,39,31,22,23,15,10,85,59,32,30.31,29.99,29.75,10,10,10,39,21,47,0.00,4,,336
2012-3-8,55,35,15,16,12,4,88,51,13,30.47,30.40,30.33,10,10,10,22,6,26,0.00,0,,325
2012-3-9,73,48,22,22,13,1,63,35,6,30.40,30.18,29.94,10,10,10,18,5,23,0.00,0,,206
2012-3-10,75,51,27,19,14,7,58,33,8,29.94,29.82,29.68,10,10,10,20,5,24,0.00,0,,147
2012-3-11,70,53,36,37,31,20,82,53,24,29.68,29.56,29.45,10,10,10,23,8,26,0.00,0,,171
2012-3-12,60,47,34,26,20,15,48,34,20,29.86,29.72,29.45,10,10,10,38,11,46,0.00,0,,344
2012-3-13,75,54,32,27,19,13,64,37,10,29.81,29.66,29.54,10,10,10,36,14,49,0.00,0,,197
2012-3-14,63,48,33,25,19,7,52,35,18,29.99,29.87,29.61,10,10,10,33,10,40,0.00,0,,103
2012-3-15,71,54,36,28,25,22,54,37,19,30.02,29.92,29.85,10,10,10,21,8,24,0.00,0,,79
2012-3-16,82,61,39,32,26,21,64,38,12,29.84,29.66,29.54,10,10,10,28,10,36,0.00,0,,188
2012-3-17,79,61,42,36,31,24,65,39,13,29.70,29.54,29.42,10,10,10,23,10,30,0.00,0,,109
2012-3-18,78,58,37,31,24,18,59,36,12,29.44,29.30,29.12,10,10,10,33,12,43,0.00,1,,165
2012-3-19,60,46,31,33,18,7,64,38,11,29.72,29.41,29.21,10,10,10,31,16,39,0.00,0,,241
2012-3-20,60,42,24,23,20,14,81,49,17,30.03,29.89,29.76,10,10,10,24,10,30,0.00,0,,213
2012-3-21,66,46,26,19,14,12,55,34,13,30.02,29.96,29.90,10,10,10,13,5,17,0.00,0,,160
2012-3-22,66,48,30,47,30,11,100,62,24,30.04,29.95,29.89,10,10,10,20,7,24,0.00,0,,141
2012-3-23,72,54,35,48,42,36,100,68,35,29.96,29.90,29.82,10,4,0,17,8,22,0.00,1,Fog,157
2012-3-24,55,50,44,40,32,29,65,52,38,30.20,30.07,29.81,10,10,10,37,27,47,0.00,0,,12
2012-3-25,58,44,30,39,35,28,93,70,47,30.18,30.06,29.98,10,10,6,18,9,23,0.00,2,,125
2012-3-26,69,54,38,51,40,16,100,61,22,29.95,29.64,29.37,10,6,0,44,14,58,T,5,Fog-Rain-Thunderstorm,163
2012-3-27,65,51,37,39,31,23,73,47,20,30.00,29.81,29.49,10,10,10,31,12,40,0.01,1,Rain,318
2012-3-28,77,53,29,31,24,19,69,41,13,29.99,29.84,29.68,10,10,10,25,8,33,0.00,0,,202
2012-3-29,67,55,42,36,30,26,53,39,24,29.84,29.76,29.66,10,10,10,32,10,40,0.00,0,,358
2012-3-30,76,56,36,30,27,23,62,39,15,29.72,29.66,29.60,10,10,10,21,6,26,0.00,0,,351
2012-3-31,83,65,46,34,31,27,45,30,14,29.75,29.60,29.43,10,10,10,23,11,35,0.00,0,,186